Regional Weather Roundup
Issued by NWS

Home | Current Version | Previous Version | Graphics & Text | Print | Product List | Glossary Off
Versions: 1 2 3 4 5 6 7 8 9 10 11 12 13 14 15 16 17 18 19 20 21 22 23 24 25 26 27 28 29 30 31 32 33 34 35 36 37 38 39 40 41 42 43 44 45 46 47 48 49 50

000
ASUS43 KMKX 070100
RWRWI

WISCONSIN REGIONAL WEATHER ROUNDUP
NATIONAL WEATHER SERVICE MILWAUKEE/SULLIVAN WI
800 PM CDT FRI MAY 06 2016

NOTE: "FAIR" INDICATES FEW OR NO CLOUDS BELOW 12,000 FEET WITH NO
SIGNIFICANT WEATHER AND/OR OBSTRUCTIONS TO VISIBILITY.

WIZ001-002-006>008-014>016-023>028-070200-
NORTHWEST WISCONSIN

CITY           SKY/WX    TMP DP  RH WIND       PRES   REMARKS
SUPERIOR ARPT  CLOUDY    76  50  39 N12       29.67R
ASHLAND        CLOUDY    65  58  78 W7        29.67R
HAYWARD        CLOUDY    64  61  90 CALM      29.68F
SIREN          RAIN      75  50  42 SW3G21    29.67R
CUMBERLAND     CLOUDY    79  46  31 NW12      29.65R
RICE LAKE      CLOUDY    83  44  25 SW6       29.64F HX  81
CHETEK         CLOUDY    82  49  31 SW6       29.63F HX  81
LADYSMITH      CLOUDY    80  47  31 SW3       29.66F
EAU CLAIRE     NOT AVBL
MENOMONIE      CLEAR     83  44  24 S7        29.63F HX  81
NEW RICHMOND   PTCLDY    83  49  29 NW9       29.64S HX  82
OSCEOLA        CLOUDY    85  49  28 NW10G16   29.67R HX  83
$$

WIZ003>005-009-010-017-018-070200-
NORTH CENTRAL WISCONSIN

CITY           SKY/WX    TMP DP  RH WIND       PRES   REMARKS
MANITOWISH WTR TSTM      61  58  90 N14G22    29.78R
ARBOR VITAE    TSTM      69  55  60 NW17G25   29.77R
WOODRUFF       TSTM      69  55  60 NW17G25   29.77R
RHINELANDER    CLOUDY    77  47  34 NW24G38   29.71R
EAGLE RIVER    LGT RAIN  69  49  48 N10G26    29.68R
LAND O LAKES   RAIN      68  53  60 NW14G23   29.74R
PHILLIPS       CLOUDY    79  48  34 N20G29    29.70R
TOMAHAWK       CLOUDY    80  42  26 W7        29.68S
MEDFORD        CLOUDY    79  48  34 SW3       29.68S
MERRILL        CLOUDY    81  48  31 SW8       29.68S HX  80
$$

WIZ029-030-035-036-043>047-070200-
CENTRAL WISCONSIN

CITY           SKY/WX    TMP DP  RH WIND       PRES   REMARKS
WAUSAU         CLOUDY    82  45  27 SW8       29.66S HX  80
MOSINEE        PTCLDY    77  43  29 SW7       29.69F
MARSHFIELD     CLOUDY    78  44  29 SW8       29.67F
STEVENS POINT  CLOUDY    81  42  25 SW6       29.69F
WAUPACA        CLOUDY    81  38  21 SW6       29.68S
WAUTOMA        CLEAR     80  40  23 SW7       29.69F
WISC RAPIDS    PTCLDY    80  37  21 SW7       29.70S
CAMP DOUGLAS   NOT AVBL
$$

WIZ011>013-019>022-031-037>040-048>050-070200-
NORTHEAST WISCONSIN

CITY           SKY/WX    TMP DP  RH WIND       PRES   REMARKS
ANTIGO         CLOUDY    75  48  38 W8        29.69S
SHAWANO        CLOUDY    83  38  19 CALM      29.66F HX  81
OCONTO         PTCLDY    66  51  57 S7        29.65S
STURGEON BAY   CLOUDY    57  39  51 S14       29.70S
GREEN BAY      CLOUDY    77  51  40 S8        29.67S
MANITOWOC      NOT AVBL
APPLETON       MOCLDY    79  36  21 SW8       29.67F
CLINTONVILLE   CLOUDY    81  37  21 SW5       29.66F
OSHKOSH        CLEAR     78  43  28 SW6       29.68F
$$

WIZ032>034-041-042-053>061-070200-
SOUTHWEST WISCONSIN

CITY           SKY/WX    TMP DP  RH WIND       PRES   REMARKS
LA CROSSE      CLEAR     82  41  23 SW8       29.67F HX  80
SPARTA         CLEAR     83  41  22 W5        29.70S HX  81
VIROQUA        CLEAR     80  35  19 SW10      29.74F
BOSCOBEL       CLEAR     79  40  24 SW7       29.73F
PRAIRIE DU CHI CLEAR     82  32  16 SW9       29.73F HX  80
PLATTEVILLE    CLEAR     80  43  26 SW9       29.77F
$$

WIZ056-057-062-063-064-067-068-070200-
SOUTH CENTRAL WISCONSIN

CITY           SKY/WX    TMP DP  RH WIND       PRES   REMARKS
REEDSBURG      CLEAR     80  42  25 SW7       29.72S
BARABOO/DELLS  CLEAR     79  36  20 SW7       29.72F
LONE ROCK      NOT AVBL
MINERAL POINT  CLEAR     79  37  22 W8        29.77S
MADISON        PTCLDY    77  41  27 SW5       29.73F
MIDDLETON      CLEAR     77  40  26 W6        29.74F
WATERTOWN      CLEAR     75  53  45 SW5       29.73S
MONROE         PTCLDY    79  41  25 W10       29.76F
JANESVILLE     CLEAR     75  46  35 SW6       29.75F
$$

WIZ051-052-058>065-066-070>072-070200-
SOUTHEAST WISCONSIN

CITY           SKY/WX    TMP DP  RH WIND       PRES   REMARKS
MILWAUKEE      PTCLDY    80  47  31 W7        29.73F
WAUKESHA       CLEAR     73  45  35 W5        29.75
MILWAUKEE/TIMM NOT AVBL
RACINE         CLEAR     65  47  52 CALM      29.76S
BURLINGTON     CLEAR     76  46  35 W3        29.75F
KENOSHA        CLEAR     70  49  47 W3        29.75F
FOND DU LAC    CLEAR     78  45  30 SW5       29.70S
SHEBOYGAN      CLEAR     56  42  59 S8        29.71F
WEST BEND      CLEAR     75  45  33 SW7       29.72F
JUNEAU         CLEAR     75  50  41 SW8       29.74S
$$

LSZ147-162-070200-
LAKE SUPERIOR

STATION/POSITION TIME  TEMP    WIND        PRES    WAVE
                       AIR SEA DIR/SP/G            HT/PER
                 (UTC) (F)     (DEG/KT/KT) (MB)    (FT/S)
W MID LAKE BUOY  2350   54 37  230/ 17/ 23 1002.2R   2/ 4
DEVILS ISLAND    0000   69     250/ 15/ 16 1002.3R
SAXON HARBOR     0040          190/  9/ 15 1003.4F
$$

LMZ867-665-643>646-070200-
LAKE MICHIGAN

STATION/POSITION TIME  TEMP    WIND        PRES    WAVE
                       AIR SEA DIR/SP/G            HT/PER
                 (UTC) (F)     (DEG/KT/KT) (MB)    (FT/S)
CHAMBERS ISLAND  0000   62     140/ 10/ 16 1004.1F
N MID LAKE BUOY  2350   46 39  190/ 17/ 19 1005.6F   3/ 4
NORTHPORT PIER   0000   56     160/ 14/ 23 1004.7F
SISTER BAY       0019   59     180/ 27/ 33   N/A
ALGOMA LAKESHORE 0015          220/ 19/ 21   N/A
KEWAUNEE LAKESHO 0000   49                 1005.5F
SHEBOYGAN LAKESH 0000   47     170/ 10/ 11 1007.4F
PORT WASHINGTON  0000   50     160/  2/  4 1007.8F
MILWAUKEE LAKESH 0010   53      70/  1/  1   N/A
S MID LAKE BUOY  2350   49 41  140/ 12/ 14 1008.0F   1/ 3
KENOSHA   LAKESH 0000   63     200/  2/  5 1007.5F
$$

TC  - TEMPERATURE IN CELSIUS
VSB - VISIBILITY IN STATUTE MILES
WCI - WIND CHILL INDEX
HX  - HEAT INDEX





USA.gov is the U.S. government's official web portal to all federal, state and local government web resources and services.